This is the latest recevied weather packets stored in our database for station/object KC4GS-13. If no packets are shown the sender has not sent any weather packets the latest 10 day(s).
| Time | Temp. | Humidity | Pressure | Rain* | Wind** | Luminosity | Snow |
|---|---|---|---|---|---|---|---|
| 1787557363 | 22.22° C | 71% | 1016.1 hPa | 0 mm | - | 0 W/m² | - |
| 1787557060 | 22.22° C | 72% | 1015.8 hPa | 0 mm | - | 0 W/m² | - |
| 1787556755 | 22.22° C | 73% | 1015.9 hPa | 0 mm | - | 0 W/m² | - |
| 1787556451 | 21.67° C | 74% | 1016 hPa | 0 mm | - | 0 W/m² | - |
| 1787556147 | 21.67° C | 75% | 1015.8 hPa | 0 mm | - | 0 W/m² | - |
| 1787555842 | 22.22° C | 75% | 1015.9 hPa | 0 mm | - | 0 W/m² | - |
| 1787555542 | 22.22° C | 76% | 1015.9 hPa | 0 mm | - | 0 W/m² | - |
| 1787555238 | 22.22° C | 75% | 1015.9 hPa | 0 mm | - | 0 W/m² | - |
| 1787554933 | 23.33° C | 74% | 1015.8 hPa | 0 mm | - | 0 W/m² | - |
| 1787554629 | 23.33° C | 71% | 1015.9 hPa | 0 mm | - | 0 W/m² | - |
| 1787554327 | 23.33° C | 69% | 1015.8 hPa | 0 mm | - | 0 W/m² | - |
| 1787554023 | 22.78° C | 71% | 1015.9 hPa | 0 mm | - | 0 W/m² | - |
| 1787553718 | 22.78° C | 73% | 1016 hPa | 0 mm | - | 0 W/m² | - |
| 1787553414 | 22.78° C | 74% | 1016.1 hPa | 0 mm | - | 0 W/m² | - |
| 1787553111 | 23.33° C | 74% | 1016 hPa | 0 mm | - | 0 W/m² | - |
| 1787552808 | 23.89° C | 72% | 1016.1 hPa | 0 mm | - | 0 W/m² | - |
| 1787552503 | 24.44° C | 68% | 1015.8 hPa | 0 mm | - | 0 W/m² | - |
| 1787552203 | 24.44° C | 65% | 1016.1 hPa | 0 mm | - | 0 W/m² | - |
| 1787551902 | 23.89° C | 65% | 1016.2 hPa | 0 mm | - | 0 W/m² | - |
| 1787551598 | 23.89° C | 66% | 1016.1 hPa | 0 mm | - | 0 W/m² | - |
| 1787551292 | 23.89° C | 67% | 1016.1 hPa | 0 mm | - | 0 W/m² | - |
| 1787550987 | 23.89° C | 68% | 1015.8 hPa | 0 mm | - | 0 W/m² | - |
| 1787550682 | 23.89° C | 69% | 1015.9 hPa | 0 mm | - | 0 W/m² | - |
| 1787550378 | 23.89° C | 72% | 1016.2 hPa | 0 mm | - | 0 W/m² | - |
| 1787550074 | 23.89° C | 73% | 1016 hPa | 0 mm | - | 0 W/m² | - |
* Rain latest hour (hover to see other rain measurements)
** Current wind speed in m/s (hover to see current wind gust speed)